Weather History for Logrono, Spain

Change the Weather History Date:

Monday, October 7, 2013

  Actual Average Record
Temperature  
Mean Temperature 61 °F -  
Max Temperature 72 °F - - ()
Min Temperature 50 °F - - ()
Degree Days  
Heating Degree Days 4    
Growing Degree Days 11 (Base 50)    
Moisture  
Dew Point 50 °F    
Average Humidity 75    
Maximum Humidity 100    
Minimum Humidity 29    
Precipitation  
Precipitation 0.00 in - - ()
Sea Level Pressure  
Sea Level Pressure 30.22 in    
Wind  
Wind Speed 4 mph ()    
Max Wind Speed 9 mph    
Max Gust Speed -    
Visibility 17.5 miles    
Events      
T = Trace of Precipitation, MM = Missing Value Source: Averaged Metar Reports

Daily Weather History Graph

Daily Weather History Graph

Search for Another Location

Airport:

Trip Planner

Search our weather history database for the weather conditions in past years. The results will help you decide how hot, cold, wet, or windy it might be!

Date:

Astronomy

Oct. 07, 2013 Rise Set
Actual Time 8:13 AM CEST 7:40 PM CEST
Civil Twilight 7:45 AM CEST 8:08 PM CEST
Nautical Twilight 7:12 AM CEST 8:40 PM CEST
Astronomical Twilight 6:39 AM CEST 9:13 PM CEST
Moon 10:50 AM CEST (10/7) 9:09 PM CEST (10/7)
Length of Visible Light 12h 23m
Length of Day
11h 27m
Waxing Crescent, 7% of the Moon is Illuminated
Oct 7
Waxing Crescent
Oct 12
First Quarter
Oct 19
Full
Oct 27
Last Quarter
Nov 3
New

Hourly Weather History & Observations

Time (CEST) Temp. Dew Point Humidity Pressure Visibility Wind Dir Wind Speed Gust Speed Precip Events Conditions
12:00 AM 51.8 °F 51.8 °F 100% 30.27 in - Variable 1.2 mph - N/A   Clear
1:00 AM 51.8 °F 50.0 °F 94% 30.27 in - Calm Calm - N/A   Clear
2:00 AM 53 °F 47 °F 75% 30.28 in 16 mi West 3.5 mph - -  
2:00 AM 51.8 °F 50.0 °F 94% 30.27 in - West 6.9 mph - N/A   Clear
3:00 AM 50.0 °F 50.0 °F 100% 30.24 in - West 5.8 mph - N/A   Clear
4:00 AM 51.8 °F 50.0 °F 94% 30.24 in - West 4.6 mph - N/A   Clear
5:00 AM 51.8 °F 51.8 °F 100% 30.24 in - WNW 4.6 mph - N/A   Clear
6:00 AM 50.0 °F 50.0 °F 100% 30.24 in - West 4.6 mph - N/A   Clear
7:00 AM 50.0 °F 50.0 °F 100% 30.24 in - West 5.8 mph - N/A   Clear
8:00 AM 50 °F 46 °F 83% 30.25 in 19 mi West 4.6 mph - -  
8:00 AM 50.0 °F 50.0 °F 100% 30.24 in - West 8.1 mph - N/A   Clear
9:00 AM 51.8 °F 51.8 °F 100% 30.24 in - West 4.6 mph - N/A   Clear
10:00 AM 55.4 °F 53.6 °F 94% 30.24 in - West 8.1 mph - N/A   Clear
11:00 AM 60.8 °F 53.6 °F 77% 30.24 in - West 9.2 mph - N/A   Clear
12:00 PM 64.4 °F 50.0 °F 59% 30.24 in - WSW 9.2 mph - N/A   Clear
1:00 PM 66.2 °F 48.2 °F 52% 30.24 in - SW 5.8 mph - N/A   Clear
2:00 PM 68 °F 43 °F 29% 30.20 in - West 2.3 mph - -  
2:00 PM 68.0 °F 48.2 °F 49% 30.21 in - WSW 6.9 mph - N/A   Clear
3:00 PM 71.6 °F 48.2 °F 43% 30.21 in - WSW 5.8 mph - N/A   Clear
4:00 PM 71.6 °F 48.2 °F 43% 30.18 in - WSW 6.9 mph - N/A   Clear
5:00 PM 73.4 °F 50.0 °F 44% 30.18 in - SW 5.8 mph - N/A   Clear
6:00 PM 73.4 °F 50.0 °F 44% 30.15 in - WSW 6.9 mph - N/A   Clear
7:00 PM 71.6 °F 51.8 °F 50% 30.15 in - WSW 3.5 mph - N/A   Clear
8:00 PM 62 °F 50 °F 55% 30.17 in 28 mi SW 2.3 mph - -  
8:00 PM 62.6 °F 53.6 °F 72% 30.18 in - Calm Calm - N/A   Clear
9:00 PM 59.0 °F 53.6 °F 82% 30.21 in - Calm Calm - N/A   Clear
10:00 PM 55.4 °F 51.8 °F 88% 30.21 in - SSE 3.5 mph - N/A   Clear
11:00 PM 53.6 °F 50.0 °F 88% 30.24 in - Calm Calm - N/A   Clear